Year,Month,Day,Hour,Minute,Value (Times are PST for temperature in C)
2011,05,23,00,00,8.50
2011,05,23,00,01,8.40
2011,05,23,00,02,8.40
2011,05,23,00,03,8.40
2011,05,23,00,04,8.40
2011,05,23,00,05,8.40
2011,05,23,00,06,8.40
2011,05,23,00,07,8.40
2011,05,23,00,08,8.40
2011,05,23,00,09,8.40
2011,05,23,00,10,8.30
2011,05,23,00,11,8.30
2011,05,23,00,12,8.30
2011,05,23,00,13,8.30
2011,05,23,00,14,8.30
2011,05,23,00,15,8.30
2011,05,23,00,16,8.30
2011,05,23,00,17,8.30
2011,05,23,00,18,8.30
2011,05,23,00,19,8.30
2011,05,23,00,20,8.30
2011,05,23,00,21,8.20
2011,05,23,00,22,8.20
2011,05,23,00,23,8.20
2011,05,23,00,24,8.20
2011,05,23,00,25,8.20
2011,05,23,00,26,8.20
2011,05,23,00,27,8.20
2011,05,23,00,28,8.20
2011,05,23,00,29,8.20
2011,05,23,00,30,8.20
2011,05,23,00,31,8.20
2011,05,23,00,32,8.20
2011,05,23,00,33,8.20
2011,05,23,00,34,8.20
2011,05,23,00,35,8.20
2011,05,23,00,36,8.20
2011,05,23,00,37,8.20
2011,05,23,00,38,8.20
2011,05,23,00,39,8.20
2011,05,23,00,40,8.10
2011,05,23,00,41,8.10
2011,05,23,00,42,8.10
2011,05,23,00,43,8.10
2011,05,23,00,44,8.10
2011,05,23,00,45,8.10
2011,05,23,00,46,8.10
2011,05,23,00,47,8.10
2011,05,23,00,48,8.10
2011,05,23,00,49,8.10
2011,05,23,00,50,8.10
2011,05,23,00,51,8.10
2011,05,23,00,52,8.10
2011,05,23,00,53,8.10
2011,05,23,00,54,8.10
2011,05,23,00,55,8.10
2011,05,23,00,56,8.10
2011,05,23,00,57,8.10
2011,05,23,00,58,8.10
2011,05,23,00,59,8.10
2011,05,23,01,00,8.10
2011,05,23,01,01,8.10
2011,05,23,01,02,8.10
2011,05,23,01,03,8.10
2011,05,23,01,04,8.10
2011,05,23,01,05,8.10
2011,05,23,01,06,8.10
2011,05,23,01,07,8.10
2011,05,23,01,08,8.10
2011,05,23,01,09,8.10
2011,05,23,01,10,8.10
2011,05,23,01,11,8.10
2011,05,23,01,12,8.10
2011,05,23,01,13,8.10
2011,05,23,01,14,8.10
2011,05,23,01,15,8.10
2011,05,23,01,16,8.10
2011,05,23,01,17,8.10
2011,05,23,01,18,8.10
2011,05,23,01,19,8.10
2011,05,23,01,20,8.10
2011,05,23,01,21,8.10
2011,05,23,01,22,8.10
2011,05,23,01,23,8.10
2011,05,23,01,24,8.10
2011,05,23,01,25,8.10
2011,05,23,01,26,8.10
2011,05,23,01,27,8.10
2011,05,23,01,28,8.10
2011,05,23,01,29,8.10
2011,05,23,01,30,8.00
2011,05,23,01,31,8.10
2011,05,23,01,32,8.00
2011,05,23,01,33,8.00
2011,05,23,01,34,8.10
2011,05,23,01,35,8.10
2011,05,23,01,36,8.00
2011,05,23,01,37,8.10
2011,05,23,01,38,8.10
2011,05,23,01,39,8.10
2011,05,23,01,40,8.10
2011,05,23,01,41,8.10
2011,05,23,01,42,8.10
2011,05,23,01,43,8.10
2011,05,23,01,44,8.10
2011,05,23,01,45,8.10
2011,05,23,01,46,8.10
2011,05,23,01,47,8.00
2011,05,23,01,48,8.00
2011,05,23,01,49,8.00
2011,05,23,01,50,8.00
2011,05,23,01,51,8.00
2011,05,23,01,52,8.00
2011,05,23,01,53,8.00
2011,05,23,01,54,8.00
2011,05,23,01,55,8.00
2011,05,23,01,56,8.00
2011,05,23,01,57,8.00
2011,05,23,01,58,8.00
2011,05,23,01,59,8.00
2011,05,23,02,00,8.00
2011,05,23,02,01,8.00
2011,05,23,02,02,8.00
2011,05,23,02,03,7.90
2011,05,23,02,04,7.90
2011,05,23,02,05,7.90
2011,05,23,02,06,7.90
2011,05,23,02,07,7.90
2011,05,23,02,08,7.90
2011,05,23,02,09,7.90
2011,05,23,02,10,7.80
2011,05,23,02,11,7.80
2011,05,23,02,12,7.80
2011,05,23,02,13,7.80
2011,05,23,02,14,7.80
2011,05,23,02,15,7.80
2011,05,23,02,16,7.80
2011,05,23,02,17,7.70
2011,05,23,02,18,7.70
2011,05,23,02,19,7.70
2011,05,23,02,20,7.70
2011,05,23,02,21,7.70
2011,05,23,02,22,7.70
2011,05,23,02,23,7.70
2011,05,23,02,24,7.70
2011,05,23,02,25,7.60
2011,05,23,02,26,7.60
2011,05,23,02,27,7.60
2011,05,23,02,28,7.60
2011,05,23,02,29,7.60
2011,05,23,02,30,7.60
2011,05,23,02,31,7.60
2011,05,23,02,32,7.60
2011,05,23,02,33,7.60
2011,05,23,02,34,7.60
2011,05,23,02,35,7.60
2011,05,23,02,36,7.60
2011,05,23,02,37,7.60
2011,05,23,02,38,7.50
2011,05,23,02,39,7.50
2011,05,23,02,40,7.50
2011,05,23,02,41,7.50
2011,05,23,02,42,7.50
2011,05,23,02,43,7.40
2011,05,23,02,44,7.40
2011,05,23,02,45,7.40
2011,05,23,02,46,7.40
2011,05,23,02,47,7.40
2011,05,23,02,48,7.40
2011,05,23,02,49,7.40
2011,05,23,02,50,7.40
2011,05,23,02,51,7.40
2011,05,23,02,52,7.40
2011,05,23,02,53,7.30
2011,05,23,02,54,7.30
2011,05,23,02,55,7.30
2011,05,23,02,56,7.30
2011,05,23,02,57,7.30
2011,05,23,02,58,7.30
2011,05,23,02,59,7.30
2011,05,23,03,00,7.30
2011,05,23,03,01,7.30
2011,05,23,03,02,7.30
2011,05,23,03,03,7.30
2011,05,23,03,04,7.20
2011,05,23,03,05,7.20
2011,05,23,03,06,7.20
2011,05,23,03,07,7.20
2011,05,23,03,08,7.20
2011,05,23,03,09,7.20
2011,05,23,03,10,7.20
2011,05,23,03,11,7.20
2011,05,23,03,12,7.10
2011,05,23,03,13,7.10
2011,05,23,03,14,7.10
2011,05,23,03,15,7.10
2011,05,23,03,16,7.10
2011,05,23,03,17,7.10
2011,05,23,03,18,7.10
2011,05,23,03,19,7.10
2011,05,23,03,20,7.10
2011,05,23,03,21,7.10
2011,05,23,03,22,7.10
2011,05,23,03,23,7.10
2011,05,23,03,24,7.10
2011,05,23,03,25,7.10
2011,05,23,03,26,7.10
2011,05,23,03,27,7.10
2011,05,23,03,28,7.10
2011,05,23,03,29,7.10
2011,05,23,03,30,7.10
2011,05,23,03,31,7.10
2011,05,23,03,32,7.10
2011,05,23,03,33,7.10
2011,05,23,03,34,7.10
2011,05,23,03,35,7.10
2011,05,23,03,36,7.10
2011,05,23,03,37,7.10
2011,05,23,03,38,7.10
2011,05,23,03,39,7.10
2011,05,23,03,40,7.10
2011,05,23,03,41,7.10
2011,05,23,03,42,7.00
2011,05,23,03,43,7.00
2011,05,23,03,44,7.00
2011,05,23,03,45,7.00
2011,05,23,03,46,6.90
2011,05,23,03,47,6.90
2011,05,23,03,48,6.90
2011,05,23,03,49,6.90
2011,05,23,03,50,6.90
2011,05,23,03,51,6.90
2011,05,23,03,52,6.90
2011,05,23,03,53,6.90
2011,05,23,03,54,6.90
2011,05,23,03,55,6.90
2011,05,23,03,56,6.90
2011,05,23,03,57,6.90
2011,05,23,03,58,6.90
2011,05,23,03,59,6.80
2011,05,23,04,00,6.80
2011,05,23,04,01,6.80
2011,05,23,04,02,6.80
2011,05,23,04,03,6.80
2011,05,23,04,04,6.80
2011,05,23,04,05,6.80
2011,05,23,04,06,6.80
2011,05,23,04,07,6.80
2011,05,23,04,08,6.80
2011,05,23,04,09,6.80
2011,05,23,04,10,6.80
2011,05,23,04,11,6.80
2011,05,23,04,12,6.80
2011,05,23,04,13,6.80
2011,05,23,04,14,6.80
2011,05,23,04,15,6.80
2011,05,23,04,16,6.80
2011,05,23,04,17,6.70
2011,05,23,04,18,6.70
2011,05,23,04,19,6.70
2011,05,23,04,20,6.70
2011,05,23,04,21,6.70
2011,05,23,04,22,6.70
2011,05,23,04,23,6.70
2011,05,23,04,24,6.70
2011,05,23,04,25,6.70
2011,05,23,04,26,6.70
2011,05,23,04,27,6.70
2011,05,23,04,28,6.70
2011,05,23,04,29,6.70
2011,05,23,04,30,6.70
2011,05,23,04,31,6.70
2011,05,23,04,32,6.70
2011,05,23,04,33,6.70
2011,05,23,04,34,6.60
2011,05,23,04,35,6.60
2011,05,23,04,36,6.60
2011,05,23,04,37,6.60
2011,05,23,04,38,6.60
2011,05,23,04,39,6.60
2011,05,23,04,40,6.60
2011,05,23,04,41,6.60
2011,05,23,04,42,6.60
2011,05,23,04,43,6.60
2011,05,23,04,44,6.60
2011,05,23,04,45,6.60
2011,05,23,04,46,6.60
2011,05,23,04,47,6.60
2011,05,23,04,48,6.60
2011,05,23,04,49,6.60
2011,05,23,04,50,6.60
2011,05,23,04,51,6.60
2011,05,23,04,52,6.70
2011,05,23,04,53,6.70
2011,05,23,04,54,6.70
2011,05,23,04,55,6.70
2011,05,23,04,56,6.70
2011,05,23,04,57,6.60
2011,05,23,04,58,6.60
2011,05,23,04,59,6.60
2011,05,23,05,00,6.60
2011,05,23,05,01,6.60
2011,05,23,05,02,6.60
2011,05,23,05,03,6.60
2011,05,23,05,04,6.60
2011,05,23,05,05,6.60
2011,05,23,05,06,6.70
2011,05,23,05,07,6.70
2011,05,23,05,08,6.70
2011,05,23,05,09,6.70
2011,05,23,05,10,6.70
2011,05,23,05,11,6.70
2011,05,23,05,12,6.70
2011,05,23,05,13,6.70
2011,05,23,05,14,6.70
2011,05,23,05,15,6.70
2011,05,23,05,16,6.70
2011,05,23,05,17,6.70
2011,05,23,05,18,6.70
2011,05,23,05,19,6.70
2011,05,23,05,20,6.70
2011,05,23,05,21,6.70
2011,05,23,05,22,6.70
2011,05,23,05,23,6.70
2011,05,23,05,24,6.70
2011,05,23,05,25,6.70
2011,05,23,05,26,6.70
2011,05,23,05,27,6.70
2011,05,23,05,28,6.70
2011,05,23,05,29,6.70
2011,05,23,05,30,6.70
2011,05,23,05,31,6.70
2011,05,23,05,32,6.70
2011,05,23,05,33,6.70
2011,05,23,05,34,6.70
2011,05,23,05,35,6.70
2011,05,23,05,36,6.70
2011,05,23,05,37,6.70
2011,05,23,05,38,6.70
2011,05,23,05,39,6.70
2011,05,23,05,40,6.70
2011,05,23,05,41,6.70
2011,05,23,05,42,6.70
2011,05,23,05,43,6.70
2011,05,23,05,44,6.70
2011,05,23,05,45,6.70
2011,05,23,05,46,6.70
2011,05,23,05,47,6.70
2011,05,23,05,48,6.70
2011,05,23,05,49,6.70
2011,05,23,05,50,6.70
2011,05,23,05,51,6.70
2011,05,23,05,52,6.70
2011,05,23,05,53,6.70
2011,05,23,05,54,6.70
2011,05,23,05,55,6.70
2011,05,23,05,56,6.70
2011,05,23,05,57,6.70
2011,05,23,05,58,6.70
2011,05,23,05,59,6.70
2011,05,23,06,00,6.70
2011,05,23,06,01,6.70
2011,05,23,06,02,6.70
2011,05,23,06,03,6.70
2011,05,23,06,04,6.80
2011,05,23,06,05,6.80
2011,05,23,06,06,6.80
2011,05,23,06,07,6.80
2011,05,23,06,08,6.80
2011,05,23,06,09,6.80
2011,05,23,06,10,6.80
2011,05,23,06,11,6.80
2011,05,23,06,12,6.80
2011,05,23,06,13,6.80
2011,05,23,06,14,6.80
2011,05,23,06,15,6.80
2011,05,23,06,16,6.80
2011,05,23,06,17,6.80
2011,05,23,06,18,6.80
2011,05,23,06,19,6.80
2011,05,23,06,20,6.80
2011,05,23,06,21,6.80
2011,05,23,06,22,6.80
2011,05,23,06,23,6.90
2011,05,23,06,24,6.90
2011,05,23,06,25,6.90
2011,05,23,06,26,6.90
2011,05,23,06,27,6.90
2011,05,23,06,28,6.90
2011,05,23,06,29,6.90
2011,05,23,06,30,7.00
2011,05,23,06,31,7.00
2011,05,23,06,32,7.00
2011,05,23,06,33,7.10
2011,05,23,06,34,7.10
2011,05,23,06,35,7.10
2011,05,23,06,36,7.10
2011,05,23,06,37,7.10
2011,05,23,06,38,7.10
2011,05,23,06,39,7.20
2011,05,23,06,40,7.20
2011,05,23,06,41,7.20
2011,05,23,06,42,7.20
2011,05,23,06,43,7.20
2011,05,23,06,44,7.20
2011,05,23,06,45,7.20
2011,05,23,06,46,7.30
2011,05,23,06,47,7.30
2011,05,23,06,48,7.30
2011,05,23,06,49,7.30
2011,05,23,06,50,7.30
2011,05,23,06,51,7.30
2011,05,23,06,52,7.30
2011,05,23,06,53,7.30
2011,05,23,06,54,7.30
2011,05,23,06,55,7.30
2011,05,23,06,56,7.30
2011,05,23,06,57,7.40
2011,05,23,06,58,7.40
2011,05,23,06,59,7.40
2011,05,23,07,00,7.40
2011,05,23,07,01,7.40
2011,05,23,07,02,7.40
2011,05,23,07,03,7.40
2011,05,23,07,04,7.40
2011,05,23,07,05,7.40
2011,05,23,07,06,7.40
2011,05,23,07,07,7.40
2011,05,23,07,08,7.40
2011,05,23,07,09,7.40
2011,05,23,07,10,7.50
2011,05,23,07,11,7.50
2011,05,23,07,12,7.50
2011,05,23,07,13,7.50
2011,05,23,07,14,7.60
2011,05,23,07,15,7.60
2011,05,23,07,16,7.60
2011,05,23,07,17,7.60
2011,05,23,07,18,7.60
2011,05,23,07,19,7.60
2011,05,23,07,20,7.70
2011,05,23,07,21,7.70
2011,05,23,07,22,7.70
2011,05,23,07,23,7.70
2011,05,23,07,24,7.80
2011,05,23,07,25,7.80
2011,05,23,07,26,7.80
2011,05,23,07,27,7.80
2011,05,23,07,28,7.80
2011,05,23,07,29,7.80
2011,05,23,07,30,7.90
2011,05,23,07,31,7.90
2011,05,23,07,32,7.90
2011,05,23,07,33,8.00
2011,05,23,07,34,8.00
2011,05,23,07,35,8.00
2011,05,23,07,36,8.10
2011,05,23,07,37,8.10
2011,05,23,07,38,8.10
2011,05,23,07,39,8.10
2011,05,23,07,40,8.20
2011,05,23,07,41,8.20
2011,05,23,07,42,8.20
2011,05,23,07,43,8.20
2011,05,23,07,44,8.30
2011,05,23,07,45,8.30
2011,05,23,07,46,8.40
2011,05,23,07,47,8.40
2011,05,23,07,48,8.50
2011,05,23,07,49,8.50
2011,05,23,07,50,8.60
2011,05,23,07,51,8.60
2011,05,23,07,52,8.60
2011,05,23,07,53,8.70
2011,05,23,07,54,8.70
2011,05,23,07,55,8.80
2011,05,23,07,56,8.80
2011,05,23,07,57,8.80
2011,05,23,07,58,8.90
2011,05,23,07,59,8.90
2011,05,23,08,00,8.90
2011,05,23,08,01,9.00
2011,05,23,08,02,9.00
2011,05,23,08,03,9.10
2011,05,23,08,04,9.10
2011,05,23,08,05,9.20
2011,05,23,08,06,9.20
2011,05,23,08,07,9.20
2011,05,23,08,08,9.30
2011,05,23,08,09,9.30
2011,05,23,08,10,9.30
2011,05,23,08,11,9.40
2011,05,23,08,12,9.40
2011,05,23,08,13,9.50
2011,05,23,08,14,9.50
2011,05,23,08,15,9.50
2011,05,23,08,16,9.60
2011,05,23,08,17,9.60
2011,05,23,08,18,9.60
2011,05,23,08,19,9.60
2011,05,23,08,20,9.60
2011,05,23,08,21,9.60
2011,05,23,08,22,9.60
2011,05,23,08,23,9.60
2011,05,23,08,24,9.60
2011,05,23,08,25,9.60
2011,05,23,08,26,9.70
2011,05,23,08,27,9.70
2011,05,23,08,28,9.70
2011,05,23,08,29,9.70
2011,05,23,08,30,9.70
2011,05,23,08,31,9.70
2011,05,23,08,32,9.80
2011,05,23,08,33,9.80
2011,05,23,08,34,9.80
2011,05,23,08,35,9.80
2011,05,23,08,36,9.80
2011,05,23,08,37,9.80
2011,05,23,08,38,9.90
2011,05,23,08,39,9.90
2011,05,23,08,40,9.90
2011,05,23,08,41,9.90
2011,05,23,08,42,9.90
2011,05,23,08,43,10.00
2011,05,23,08,44,10.00
2011,05,23,08,45,10.10
2011,05,23,08,46,10.10
2011,05,23,08,47,10.10
2011,05,23,08,48,10.10
2011,05,23,08,49,10.10
2011,05,23,08,50,10.10
2011,05,23,08,51,10.20
2011,05,23,08,52,10.20
2011,05,23,08,53,10.20
2011,05,23,08,54,10.20
2011,05,23,08,55,10.30
2011,05,23,08,56,10.30
2011,05,23,08,57,10.30
2011,05,23,08,58,10.30
2011,05,23,08,59,10.30
2011,05,23,09,00,10.30
2011,05,23,09,01,10.30
2011,05,23,09,02,10.30
2011,05,23,09,03,10.30
2011,05,23,09,04,10.30
2011,05,23,09,05,10.30
2011,05,23,09,06,10.30
2011,05,23,09,07,10.30
2011,05,23,09,08,10.30
2011,05,23,09,09,10.30
2011,05,23,09,10,10.20
2011,05,23,09,11,10.20
2011,05,23,09,12,10.30
2011,05,23,09,13,10.30
2011,05,23,09,14,10.30
2011,05,23,09,15,10.30
2011,05,23,09,16,10.30
2011,05,23,09,17,10.40
2011,05,23,09,18,10.40
2011,05,23,09,19,10.40
2011,05,23,09,20,10.50
2011,05,23,09,21,10.50
2011,05,23,09,22,10.50
2011,05,23,09,23,10.50
2011,05,23,09,24,10.50
2011,05,23,09,25,10.50
2011,05,23,09,26,10.60
2011,05,23,09,27,10.60
2011,05,23,09,28,10.60
2011,05,23,09,29,10.60
2011,05,23,09,30,10.60
2011,05,23,09,31,10.70
2011,05,23,09,32,10.70
2011,05,23,09,33,10.70
2011,05,23,09,34,10.80
2011,05,23,09,35,10.80
2011,05,23,09,36,10.80
2011,05,23,09,37,10.90
2011,05,23,09,38,10.90
2011,05,23,09,39,11.00
2011,05,23,09,40,11.00
2011,05,23,09,41,11.10
2011,05,23,09,42,11.10
2011,05,23,09,43,11.20
2011,05,23,09,44,11.20
2011,05,23,09,45,11.20
2011,05,23,09,46,11.30
2011,05,23,09,47,11.40
2011,05,23,09,48,11.40
2011,05,23,09,49,11.40
2011,05,23,09,50,11.40
2011,05,23,09,51,11.40
2011,05,23,09,52,11.50
2011,05,23,09,53,11.50
2011,05,23,09,54,11.50
2011,05,23,09,55,11.60
2011,05,23,09,56,11.50
2011,05,23,09,57,11.50
2011,05,23,09,58,11.50
2011,05,23,09,59,11.50
2011,05,23,10,00,11.50
2011,05,23,10,01,11.50
2011,05,23,10,02,11.50
2011,05,23,10,03,11.50
2011,05,23,10,04,11.50
2011,05,23,10,05,11.60
2011,05,23,10,06,11.60
2011,05,23,10,07,11.60
2011,05,23,10,08,11.60
2011,05,23,10,09,11.50
2011,05,23,10,10,11.50
2011,05,23,10,11,11.50
2011,05,23,10,12,11.60
2011,05,23,10,13,11.60
2011,05,23,10,14,11.60
2011,05,23,10,15,11.60
2011,05,23,10,16,11.70
2011,05,23,10,17,11.70
2011,05,23,10,18,11.70
2011,05,23,10,19,11.80
2011,05,23,10,20,11.90
2011,05,23,10,21,11.90
2011,05,23,10,22,12.00
2011,05,23,10,23,12.10
2011,05,23,10,24,12.10
2011,05,23,10,25,12.10
2011,05,23,10,26,12.10
2011,05,23,10,27,12.10
2011,05,23,10,28,12.20
2011,05,23,10,29,12.20
2011,05,23,10,30,12.20
2011,05,23,10,31,12.30
2011,05,23,10,32,12.30
2011,05,23,10,33,12.30
2011,05,23,10,34,12.30
2011,05,23,10,35,12.30
2011,05,23,10,36,12.30
2011,05,23,10,37,12.20
2011,05,23,10,38,12.20
2011,05,23,10,39,12.10
2011,05,23,10,40,12.00
2011,05,23,10,41,11.90
2011,05,23,10,42,11.80
2011,05,23,10,43,11.70
2011,05,23,10,44,11.60
2011,05,23,10,45,11.50
2011,05,23,10,46,11.40
2011,05,23,10,47,11.40
2011,05,23,10,48,11.40
2011,05,23,10,49,11.30
2011,05,23,10,50,11.30
2011,05,23,10,51,11.40
2011,05,23,10,52,11.50
2011,05,23,10,53,11.70
2011,05,23,10,54,11.80
2011,05,23,10,55,11.80
2011,05,23,10,56,11.90
2011,05,23,10,57,12.10
2011,05,23,10,58,12.10
2011,05,23,10,59,12.10
2011,05,23,11,00,12.10
2011,05,23,11,01,12.10
2011,05,23,11,02,12.00
2011,05,23,11,03,12.00
2011,05,23,11,04,12.00
2011,05,23,11,05,11.90
2011,05,23,11,06,11.90
2011,05,23,11,07,11.90
2011,05,23,11,08,11.90
2011,05,23,11,09,12.00
2011,05,23,11,10,12.00
2011,05,23,11,11,12.10
2011,05,23,11,12,12.10
2011,05,23,11,13,12.20
2011,05,23,11,14,12.30
2011,05,23,11,15,12.40
2011,05,23,11,16,12.50
2011,05,23,11,17,12.60
2011,05,23,11,18,12.60
2011,05,23,11,19,12.50
2011,05,23,11,20,12.40
2011,05,23,11,21,12.40
2011,05,23,11,22,12.30
2011,05,23,11,23,12.20
2011,05,23,11,24,12.20
2011,05,23,11,25,12.30
2011,05,23,11,26,12.40
2011,05,23,11,27,12.40
2011,05,23,11,28,12.40
2011,05,23,11,29,12.50
2011,05,23,11,30,12.50
2011,05,23,11,31,12.60
2011,05,23,11,32,12.60
2011,05,23,11,33,12.60
2011,05,23,11,34,12.60
2011,05,23,11,35,12.60
2011,05,23,11,36,12.60
2011,05,23,11,37,12.50
2011,05,23,11,38,12.40
2011,05,23,11,39,12.30
2011,05,23,11,40,12.20
2011,05,23,11,41,12.20
2011,05,23,11,42,12.20
2011,05,23,11,43,12.20
2011,05,23,11,44,12.20
2011,05,23,11,45,12.20
2011,05,23,11,46,12.20
2011,05,23,11,47,12.30
2011,05,23,11,48,12.30
2011,05,23,11,49,12.30
2011,05,23,11,50,12.30
2011,05,23,11,51,12.40
2011,05,23,11,52,12.40
2011,05,23,11,53,12.50
2011,05,23,11,54,12.40
2011,05,23,11,55,12.30
2011,05,23,11,56,12.20
2011,05,23,11,57,12.10
2011,05,23,11,58,12.00
2011,05,23,11,59,11.90
2011,05,23,12,00,11.80
2011,05,23,12,01,11.80
2011,05,23,12,02,11.80
2011,05,23,12,03,11.80
2011,05,23,12,04,11.70
2011,05,23,12,05,11.70
2011,05,23,12,06,11.70
2011,05,23,12,07,11.70
2011,05,23,12,08,11.70
2011,05,23,12,09,11.70
2011,05,23,12,10,11.70
2011,05,23,12,11,11.70
2011,05,23,12,12,11.60
2011,05,23,12,13,11.60
2011,05,23,12,14,11.60
2011,05,23,12,15,11.70
2011,05,23,12,16,11.70
2011,05,23,12,17,11.70
2011,05,23,12,18,11.70
2011,05,23,12,19,11.60
2011,05,23,12,20,11.60
2011,05,23,12,21,11.50
2011,05,23,12,22,11.40
2011,05,23,12,23,11.40
2011,05,23,12,24,11.50
2011,05,23,12,25,11.60
2011,05,23,12,26,11.60
2011,05,23,12,27,11.60
2011,05,23,12,28,11.60
2011,05,23,12,29,11.60
2011,05,23,12,30,11.60
2011,05,23,12,31,11.60
2011,05,23,12,32,11.60
2011,05,23,12,33,11.60
2011,05,23,12,34,11.70
2011,05,23,12,35,11.70
2011,05,23,12,36,11.60
2011,05,23,12,37,11.60
2011,05,23,12,38,11.60
2011,05,23,12,39,11.60
2011,05,23,12,40,11.50
2011,05,23,12,41,11.60
2011,05,23,12,42,11.60
2011,05,23,12,43,11.60
2011,05,23,12,44,11.60
2011,05,23,12,45,11.50
2011,05,23,12,46,11.40
2011,05,23,12,47,11.30
2011,05,23,12,48,11.20
2011,05,23,12,49,11.20
2011,05,23,12,50,11.10
2011,05,23,12,51,11.10
2011,05,23,12,52,11.10
2011,05,23,12,53,11.10
2011,05,23,12,54,11.10
2011,05,23,12,55,11.10
2011,05,23,12,56,11.10
2011,05,23,12,57,11.20
2011,05,23,12,58,11.20
2011,05,23,12,59,11.10
2011,05,23,13,00,11.10
2011,05,23,13,01,11.10
2011,05,23,13,02,11.10
2011,05,23,13,03,11.10
2011,05,23,13,04,11.10
2011,05,23,13,05,11.10
2011,05,23,13,06,11.20
2011,05,23,13,07,11.20
2011,05,23,13,08,11.20
2011,05,23,13,09,11.20
2011,05,23,13,10,11.20
2011,05,23,13,11,11.20
2011,05,23,13,12,11.20
2011,05,23,13,13,11.30
2011,05,23,13,14,11.30
2011,05,23,13,15,11.30
2011,05,23,13,16,11.30
2011,05,23,13,17,11.40
2011,05,23,13,18,11.40
2011,05,23,13,19,11.40
2011,05,23,13,20,11.40
2011,05,23,13,21,11.40
2011,05,23,13,22,11.40
2011,05,23,13,23,11.40
2011,05,23,13,24,11.40
2011,05,23,13,25,11.40
2011,05,23,13,26,11.50
2011,05,23,13,27,11.60
2011,05,23,13,28,11.70
2011,05,23,13,29,11.80
2011,05,23,13,30,11.80
2011,05,23,13,31,11.80
2011,05,23,13,32,11.90
2011,05,23,13,33,11.90
2011,05,23,13,34,11.90
2011,05,23,13,35,12.00
2011,05,23,13,36,12.00
2011,05,23,13,37,11.80
2011,05,23,13,38,11.70
2011,05,23,13,39,11.70
2011,05,23,13,40,11.70
2011,05,23,13,41,11.80
2011,05,23,13,42,11.80
2011,05,23,13,43,11.80
2011,05,23,13,44,11.80
2011,05,23,13,45,11.80
2011,05,23,13,46,11.80
2011,05,23,13,47,11.80
2011,05,23,13,48,11.80
2011,05,23,13,49,11.80
2011,05,23,13,50,11.80
2011,05,23,13,51,11.80
2011,05,23,13,52,11.80
2011,05,23,13,53,11.80
2011,05,23,13,54,11.90
2011,05,23,13,55,11.80
2011,05,23,13,56,11.70
2011,05,23,13,57,11.60
2011,05,23,13,58,11.60
2011,05,23,13,59,11.50
2011,05,23,14,00,11.40
2011,05,23,14,01,11.40
2011,05,23,14,02,11.30
2011,05,23,14,03,11.30
2011,05,23,14,04,11.30
2011,05,23,14,05,11.30
2011,05,23,14,06,11.40
2011,05,23,14,07,11.40
2011,05,23,14,08,11.50
2011,05,23,14,09,11.50
2011,05,23,14,10,11.50
2011,05,23,14,11,11.60
2011,05,23,14,12,11.60
2011,05,23,14,13,11.60
2011,05,23,14,14,11.60
2011,05,23,14,15,11.60
2011,05,23,14,16,11.60
2011,05,23,14,17,11.60
2011,05,23,14,18,11.60
2011,05,23,14,19,11.60
2011,05,23,14,20,11.70
2011,05,23,14,21,11.70
2011,05,23,14,22,11.70
2011,05,23,14,23,11.80
2011,05,23,14,24,11.80
2011,05,23,14,25,11.90
2011,05,23,14,26,11.90
2011,05,23,14,27,12.00
2011,05,23,14,28,12.00
2011,05,23,14,29,12.10
2011,05,23,14,30,12.10
2011,05,23,14,31,12.20
2011,05,23,14,32,12.40
2011,05,23,14,33,12.50
2011,05,23,14,34,12.60
2011,05,23,14,35,12.70
2011,05,23,14,36,12.70
2011,05,23,14,37,12.80
2011,05,23,14,38,12.80
2011,05,23,14,39,12.80
2011,05,23,14,40,12.80
2011,05,23,14,41,12.80
2011,05,23,14,42,12.90
2011,05,23,14,43,12.90
2011,05,23,14,44,12.90
2011,05,23,14,45,13.00
2011,05,23,14,46,13.00
2011,05,23,14,47,13.00
2011,05,23,14,48,13.00
2011,05,23,14,49,13.10
2011,05,23,14,50,13.10
2011,05,23,14,51,13.20
2011,05,23,14,52,13.20
2011,05,23,14,53,13.20
2011,05,23,14,54,13.20
2011,05,23,14,55,13.20
2011,05,23,14,56,13.30
2011,05,23,14,57,13.30
2011,05,23,14,58,13.30
2011,05,23,14,59,13.40
2011,05,23,15,00,13.50
2011,05,23,15,01,13.60
2011,05,23,15,02,13.70
2011,05,23,15,03,13.80
2011,05,23,15,04,13.80
2011,05,23,15,05,13.70
2011,05,23,15,06,13.60
2011,05,23,15,07,13.60
2011,05,23,15,08,13.50
2011,05,23,15,09,13.50
2011,05,23,15,10,13.50
2011,05,23,15,11,13.40
2011,05,23,15,12,13.40
2011,05,23,15,13,13.50
2011,05,23,15,14,13.50
2011,05,23,15,15,13.50
2011,05,23,15,16,13.40
2011,05,23,15,17,13.40
2011,05,23,15,18,13.50
2011,05,23,15,19,13.60
2011,05,23,15,20,13.70
2011,05,23,15,21,13.80
2011,05,23,15,22,13.70
2011,05,23,15,23,13.60
2011,05,23,15,24,13.50
2011,05,23,15,25,13.40
2011,05,23,15,26,13.40
2011,05,23,15,27,13.40
2011,05,23,15,28,13.50
2011,05,23,15,29,13.50
2011,05,23,15,30,13.40
2011,05,23,15,31,13.30
2011,05,23,15,32,13.20
2011,05,23,15,33,13.20
2011,05,23,15,34,13.10
2011,05,23,15,35,12.90
2011,05,23,15,36,12.90
2011,05,23,15,37,13.00
2011,05,23,15,38,13.10
2011,05,23,15,39,13.10
2011,05,23,15,40,13.10
2011,05,23,15,41,13.20
2011,05,23,15,42,13.20
2011,05,23,15,43,13.30
2011,05,23,15,44,13.40
2011,05,23,15,45,13.40
2011,05,23,15,46,13.50
2011,05,23,15,47,13.50
2011,05,23,15,48,13.40
2011,05,23,15,49,13.40
2011,05,23,15,50,13.40
2011,05,23,15,51,13.40
2011,05,23,15,52,13.40
2011,05,23,15,53,13.20
2011,05,23,15,54,13.10
2011,05,23,15,55,13.00
2011,05,23,15,56,12.90
2011,05,23,15,57,12.80
2011,05,23,15,58,12.80
2011,05,23,15,59,12.80
2011,05,23,16,00,12.80
2011,05,23,16,01,12.80
2011,05,23,16,02,12.70
2011,05,23,16,03,12.70
2011,05,23,16,04,12.70
2011,05,23,16,05,12.70
2011,05,23,16,06,12.80
2011,05,23,16,07,12.80
2011,05,23,16,08,12.80
2011,05,23,16,09,12.80
2011,05,23,16,10,12.80
2011,05,23,16,11,12.80
2011,05,23,16,12,12.90
2011,05,23,16,13,12.90
2011,05,23,16,14,12.90
2011,05,23,16,15,12.80
2011,05,23,16,16,12.80
2011,05,23,16,17,12.80
2011,05,23,16,18,12.80
2011,05,23,16,19,12.70
2011,05,23,16,20,12.80
2011,05,23,16,21,12.80
2011,05,23,16,22,12.80
2011,05,23,16,23,12.80
2011,05,23,16,24,12.80
2011,05,23,16,25,12.90
2011,05,23,16,26,12.90
2011,05,23,16,27,12.80
2011,05,23,16,28,12.70
2011,05,23,16,29,12.60
2011,05,23,16,30,12.60
2011,05,23,16,31,12.70
2011,05,23,16,32,12.80
2011,05,23,16,33,12.80
2011,05,23,16,34,12.80
2011,05,23,16,35,12.90
2011,05,23,16,36,12.90
2011,05,23,16,37,12.90
2011,05,23,16,38,13.00
2011,05,23,16,39,13.10
2011,05,23,16,40,13.10
2011,05,23,16,41,13.10
2011,05,23,16,42,13.10
2011,05,23,16,43,13.20
2011,05,23,16,44,13.20
2011,05,23,16,45,13.20
2011,05,23,16,46,13.20
2011,05,23,16,47,13.20
2011,05,23,16,48,13.10
2011,05,23,16,49,13.10
2011,05,23,16,50,13.20
2011,05,23,16,51,13.20
2011,05,23,16,52,13.20
2011,05,23,16,53,13.20
2011,05,23,16,54,13.20
2011,05,23,16,55,13.10
2011,05,23,16,56,13.00
2011,05,23,16,57,12.90
2011,05,23,16,58,12.90
2011,05,23,16,59,12.90
2011,05,23,17,00,12.90
2011,05,23,17,01,13.00
2011,05,23,17,02,13.00
2011,05,23,17,03,13.10
2011,05,23,17,04,13.20
2011,05,23,17,05,13.20
2011,05,23,17,06,13.30
2011,05,23,17,07,13.40
2011,05,23,17,08,13.50
2011,05,23,17,09,13.70
2011,05,23,17,10,13.80
2011,05,23,17,11,13.70
2011,05,23,17,12,13.60
2011,05,23,17,13,13.50
2011,05,23,17,14,13.40
2011,05,23,17,15,13.40
2011,05,23,17,16,13.30
2011,05,23,17,17,13.20
2011,05,23,17,18,13.20
2011,05,23,17,19,13.20
2011,05,23,17,20,13.20
2011,05,23,17,21,13.20
2011,05,23,17,22,13.20
2011,05,23,17,23,13.30
2011,05,23,17,24,13.20
2011,05,23,17,25,13.20
2011,05,23,17,26,13.20
2011,05,23,17,27,13.20
2011,05,23,17,28,13.30
2011,05,23,17,29,13.30
2011,05,23,17,30,13.40
2011,05,23,17,31,13.40
2011,05,23,17,32,13.50
2011,05,23,17,33,13.50
2011,05,23,17,34,13.50
2011,05,23,17,35,13.40
2011,05,23,17,36,13.40
2011,05,23,17,37,13.40
2011,05,23,17,38,13.40
2011,05,23,17,39,13.40
2011,05,23,17,40,13.50
2011,05,23,17,41,13.50
2011,05,23,17,42,13.50